• Join FlightAware (Why Join?)
  • Login
  • US Flag 
10:35AM EDT


 

Airport Tracker/Info


-or-


 

Live Flight TrackerFlight Track Log ✈ AWE3268 ✈ 06-May-2013 ✈ KCMH - KPHL

Flight Track Log - Related Links

Times and Time Zones

All times are in EDT time to prevent confusion due to time zone crossing. See the AWE3268 flight status page for this flight to view local times or setup timezone preferences in your user account.

Time Position Orientation Groundspeed Altitude Reporting Facility
EDT Latitude Longitude Course Direction KTS MPH feet Rate Location/Type
01:55PM 40.0334 -82.5331 83° East  Level FlightAware Approximate
01:56PM 40.0452 -82.4146 83° East  Level FlightAware Approximate
01:56PM 39.9992 -82.6147 83° East 241 277 9,900  Level Indianapolis Center
01:57PM 40.0608 -82.2969 79° East  Level FlightAware Approximate
01:57PM 40.0003 -82.5289 89° East 237 273 12,500  Level Indianapolis Center
01:58PM 40.0788 -82.1796 79° East  Level FlightAware Approximate
01:59PM 40.0953 -82.0549 81° East  Level FlightAware Approximate
01:59PM 40.0574 -82.3185 79° East  Level FlightAware Approximate
01:59PM 40.0072 -82.3194 79° East 301 346 16,200  Level Indianapolis Center
02:00PM 40.1109 -81.9299 81° East  Level FlightAware Approximate
02:00PM 40.0097 -82.2017 88° East 320 368 18,500  Level Indianapolis Center
02:01PM 40.1178 -81.8039 83° East  Level FlightAware Approximate
02:02PM 40.0367 -81.9586 82° East 341 392 21,100  Level Indianapolis Center
02:03PM 40.0603 -81.8122 78° East 352 405 23,200 1,920 Climbing Indianapolis Center
02:04PM 40.0794 -81.6922 78° East 356 410 25,100 1,560 Climbing Indianapolis Center
02:06PM 40.1231 -81.4278 78° East 372 428 28,100 1,440 Climbing Indianapolis Center
02:07PM 40.1450 -81.2942 78° East 376 433 29,700 1,320 Climbing Indianapolis Center
02:08PM 40.1661 -81.1594 78° East 375 432 30,900 600 Climbing Indianapolis Center
02:09PM 40.1917 -81.0019 78° East 377 434 31,000  Climbing Indianapolis Center
02:10PM 40.2083 -80.9092 77° East 373 429 31,000  Level Cleveland Center
02:12PM 40.2486 -80.6564 78° East 362 417 31,000  Level Cleveland Center
02:13PM 40.2653 -80.5286 80° East 356 410 31,000  Level Cleveland Center
02:15PM 40.2572 -80.3732 90° East  Level Estimated
02:16PM 40.2747 -80.1314 90° East 346 398 31,000  Level Cleveland Center
02:17PM 40.2844 -80.0006 84° East 351 404 31,000  Level Cleveland Center
02:18PM 40.2881 -79.8728 88° East 351 404 31,000  Level Cleveland Center
02:19PM 40.2997 -79.7419 83° East 351 404 31,000  Level Cleveland Center
02:20PM 40.3697 -79.6431 47° Northeast 336 387 31,000  Level Cleveland Center
02:21PM 40.4544 -79.5653 35° Northeast 343 395 31,000  Level Cleveland Center
02:22PM 40.5119 -79.4581 55° Northeast 350 403 31,000  Level Cleveland Center
02:23PM 40.5022 -79.3269 96° East 333 383 31,000  Level Cleveland Center
02:24PM 40.4839 -79.1908 100° East 338 389 31,000  Level Cleveland Center
02:26PM 40.4450 -78.9189 101° East 390 449 31,000  Level Cleveland Center
02:27PM 40.4281 -78.7747 99° East 390 449 31,000  Level Cleveland Center
02:28PM 40.4069 -78.6308 101° East 390 449 31,000 -900 Level Cleveland Center
02:30PM 40.4145 -78.4394 96° East  Level FlightAware Approximate
02:34PM 40.2967 -77.7925 97° East 377 434 25,000  Level New York Center
02:36PM 40.2681 -77.5286 98° East 371 427 23,000 -1,080 Descending New York Center
02:37PM 40.3470 -77.5978 95° East  Level FlightAware Approximate
02:37PM 40.2528 -77.3936 98° East 371 427 21,900  Level New York Center
02:38PM 40.3379 -77.4775 96° East  Level FlightAware Approximate
02:38PM 40.2397 -77.2917 99° East 371 427 21,000  Level New York Center
02:39PM 40.3278 -77.3575 97° East  Level FlightAware Approximate
02:39PM 40.2208 -77.1406 99° East 359 413 19,600  Level New York Center
02:40PM 40.2086 -77.0197 98° East 346 398 18,500 -1,020 Descending New York Center
02:41PM 40.1919 -76.8986 100° East 335 386 17,600 -1,140 Descending New York Center
02:43PM 40.1798 -76.6963 94° East  Level FlightAware Approximate
02:44PM 40.1517 -76.5419 94° East 325 374 14,100  Level New York Center
02:45PM 40.1381 -76.4322 99° East 316 364 12,800 -1,020 Descending New York Center
02:47PM 40.1167 -76.1833 96° East 309 356 11,000 -600 Descending Philadelphia TRACON
02:48PM 40.1058 -76.0983 99° East 311 358 11,000 -420 Level New York Center
02:49PM 40.0981 -75.9919 95° East 306 352 10,300 -960 Descending New York Center
02:50PM 40.0900 -75.8908 96° East 287 330 9,100 -1,140 Descending New York Center
02:51PM 40.0836 -75.7928 95° East 276 318 8,100 -420 Descending New York Center
02:53PM 40.0733 -75.5939 94° East 276 318 8,000 -240 Descending New York Center
02:55PM 40.0509 -75.4167 180° South  Level FlightAware Approximate
02:56PM 39.9872 -75.3983 180° South 203 234 6,900  Level New York Center
02:57PM 39.9306 -75.4081 187° South 200 230 6,000 -480 Descending New York Center
02:58PM 39.9153 -75.4803 255° West 167 192 6,000 -720 Level New York Center
02:59PM 39.8956 -75.5544 251° West 189 217 4,600 -780 Descending New York Center
03:01PM 39.8667 -75.7167 257° West 206 237 3,600 -420 Descending Philadelphia TRACON
03:03PM 39.8000 -75.7000 169° South 186 214 3,000 -180 Descending Philadelphia TRACON
03:05PM 39.8292 -75.5160 90° East  Level Estimated
03:05PM 39.8000 -75.5833 90° East 174 200 3,000  Level Philadelphia TRACON
03:07PM 39.8167 -75.4667 79° East 168 193 2,900 -540 Descending Philadelphia TRACON
03:10PM 39.8500 -75.3167 74° East 131 151 600 -840 Descending Philadelphia TRACON